Terminal Aerodrome Forecast
Issued by NWS

Home | Current Version | Previous Version | Graphics & Text | Print | Product List | Glossary On
Versions: 1 2 3 4 5 6 7 8 9 10 11 12 13
090
FTUS42 KMHX 041532 AAA
TAFISO
TAF AMD
KISO 041532Z 0416/0512 21007KT 5SM -RA SCT006 OVC015
      TEMPO 0416/0419 BKN006
     FM041900 02009KT 4SM -RA OVC005
     FM050000 02013G17KT 4SM -RA BR OVC007
     FM050600 36016G22KT 6SM -RA BR OVC003
      AMD LTD TO CLD VIS AND WIND=

USA.gov is the U.S. government's official web portal to all federal, state and local government web resources and services.